Location: Multiple Mirror Telescope
(31.6889°N, 110.8853°W)
Time: 03:26:45
(UTC-07:00)

BlueWalker 3 - Visible Passes

Search period start: 16 June 2025 00:00
Search period end: 26 June 2025 00:00
Orbit: 460 x 472 km, 53.2° (Epoch: 15 June)

Date Brightness Start Highest point End Pass type
(mag) Time Alt. Az. Time Alt. Az. Time Alt. Az.
16 Jun 4.3 03:37:48 11° SSE 03:39:29 14° ESE 03:41:21 10° E visible
17 Jun 4.5 03:06:58 10° SE 03:07:15 10° ESE 03:07:45 10° ESE visible
17 Jun 2.1 04:40:57 10° SW 04:44:31 56° NW 04:48:06 10° NE visible
18 Jun 1.8 04:10:00 22° SW 04:12:11 74° NW 04:15:49 10° NE visible
19 Jun 1.7 03:38:59 50° SSW 03:39:51 83° SE 03:43:29 10° NE visible
20 Jun 2.2 03:07:54 57° E 03:07:54 57° E 03:11:07 10° NE visible
20 Jun 4.2 04:43:37 10° WNW 04:45:29 13° NW 04:47:23 10° N visible
21 Jun 3.7 02:36:44 27° ENE 02:36:44 27° ENE 02:38:41 10° NE visible
21 Jun 4.0 04:10:41 10° WNW 04:13:03 16° NW 04:15:24 10° N visible
22 Jun 4.7 02:05:31 14° ENE 02:05:31 14° ENE 02:06:11 10° ENE visible
22 Jun 3.7 03:39:26 17° WNW 03:40:35 19° NW 03:43:19 10° N visible
23 Jun 3.5 03:08:08 24° NW 03:08:09 24° NW 03:11:09 10° NNE visible
24 Jun 3.8 02:36:46 25° N 02:36:46 25° N 02:38:56 10° NNE visible
25 Jun 4.4 02:05:21 19° NNE 02:05:21 19° NNE 02:06:40 10° NNE visible
